Punta Gorda, FL

12:49 AM EST on December 08, 2019 (GMT -0500)
Charlotte County

Weather History for KPGD - September, 2019

Change the Weather History Date:

Monday, September 30, 2019

  Actual Average Record
Temperature  
Mean Temperature 82 °F -  
Max Temperature 93 °F 86 °F 93 °F (2019)
Min Temperature 72 °F 69 °F 66 °F (2001)
Cooling Degree Days 18    
Growing Degree Days 32 (Base 50)    
Moisture  
Dew Point 71 °F    
Average Humidity 77    
Maximum Humidity 100    
Minimum Humidity 45    
Precipitation  
Precipitation 0.00 in - - ()
Sea Level Pressure  
Sea Level Pressure 30.02 in    
Wind  
Wind Speed 10 mph (NE)    
Max Wind Speed 21 mph    
Max Gust Speed 30 mph    
Visibility 10 miles    
Events      
Averages and records for this station are not official NWS values.
T = Trace of Precipitation, MM = Missing Value Source: NWS Daily Summary

Daily Weather History Graph

Daily Weather History Graph

Search for Another Location

Airport or City:

Astronomy

Sep. 30, 2019 Rise Set
Actual Time 7:19 AM EDT 7:15 PM EDT
Civil Twilight 6:56 AM EDT 7:38 PM EDT
Nautical Twilight 6:29 AM EDT 8:05 PM EDT
Astronomical Twilight 6:02 AM EDT 8:32 PM EDT
Moon 9:14 AM EDT (9/30) 9:01 PM EDT (9/30)
Length of Visible Light 12h 41m
Length of Day
11h 55m
Waxing Crescent, 5% of the Moon is Illuminated
Sep 30
Waxing Crescent
Oct 5
First Quarter
Oct 13
Full
Oct 21
Last Quarter
Oct 27
New

Hourly Weather History & Observations

Time (EDT) Temp. Heat Index Dew Point Humidity Pressure Visibility Wind Dir Wind Speed Gust Speed Precip Events Conditions
12:53 AM 73.0 °F - 72.0 °F 96% 30.08 in 10.0 mi NE 6.9 mph - N/A   Clear
1:53 AM 73.0 °F - 72.0 °F 96% 30.07 in 10.0 mi NE 5.8 mph - N/A   Clear
2:53 AM 73.0 °F - 73.0 °F 100% 30.06 in 10.0 mi NNE 6.9 mph - N/A   Clear
3:53 AM 73.0 °F - 72.0 °F 96% 30.04 in 10.0 mi NE 8.1 mph - N/A   Clear
4:53 AM 72.0 °F - 72.0 °F 100% 30.03 in 10.0 mi NE 8.1 mph - N/A   Clear
5:53 AM 72.0 °F - 72.0 °F 100% 30.04 in 10.0 mi NNE 8.1 mph - N/A   Clear
6:53 AM 72.0 °F - 72.0 °F 100% 30.04 in 10.0 mi NE 8.1 mph - N/A   Clear
7:53 AM 73.0 °F - 72.0 °F 96% 30.05 in 10.0 mi NE 6.9 mph - N/A   Clear
8:53 AM 77.0 °F - 73.0 °F 88% 30.06 in 10.0 mi NE 10.4 mph - N/A   Clear
9:53 AM 82.0 °F 87.9 °F 73.9 °F 76% 30.06 in 10.0 mi ENE 12.7 mph - N/A   Clear
10:30 AM 84.0 °F 90.2 °F 73.0 °F 69% 30.06 in 10.0 mi ENE 16.1 mph - N/A   Mostly Cloudy
10:53 AM 84.9 °F 90.7 °F 72.0 °F 65% 30.06 in 10.0 mi ENE 16.1 mph 23.0 mph N/A   Scattered Clouds
11:53 AM 89.1 °F 94.1 °F 70.0 °F 53% 30.05 in 10.0 mi East 17.3 mph 23.0 mph N/A   Scattered Clouds
12:53 PM 89.1 °F 94.1 °F 70.0 °F 53% 30.03 in 10.0 mi ENE 16.1 mph - N/A   Scattered Clouds
1:53 PM 90.0 °F 95.4 °F 70.0 °F 52% 30.00 in 10.0 mi ENE 17.3 mph 24.2 mph N/A   Partly Cloudy
2:53 PM 93.0 °F 97.9 °F 69.1 °F 45% 29.97 in 10.0 mi ENE 17.3 mph 25.3 mph N/A   Clear
3:53 PM 90.0 °F 95.4 °F 70.0 °F 52% 29.96 in 10.0 mi ENE 20.7 mph - N/A   Scattered Clouds
4:53 PM 91.0 °F 95.6 °F 69.1 °F 48% 29.95 in 10.0 mi NE 20.7 mph 28.8 mph N/A   Partly Cloudy
5:53 PM 87.1 °F 91.3 °F 69.1 °F 55% 29.95 in 10.0 mi ENE 18.4 mph 29.9 mph N/A   Partly Cloudy
6:53 PM 84.0 °F 88.4 °F 70.0 °F 63% 29.96 in 10.0 mi ENE 15.0 mph - N/A   Clear
7:53 PM 81.0 °F 84.4 °F 70.0 °F 69% 29.97 in 10.0 mi ENE 13.8 mph - N/A   Clear
8:53 PM 80.1 °F 83.6 °F 71.1 °F 74% 29.99 in 10.0 mi ENE 10.4 mph - N/A   Clear
9:53 PM 78.1 °F - 73.0 °F 84% 30.01 in 10.0 mi NE 9.2 mph - N/A   Clear
10:53 PM 75.9 °F - 73.0 °F 91% 30.00 in 10.0 mi NE 6.9 mph - N/A   Clear
11:53 PM 75.0 °F - 73.0 °F 94% 29.99 in 10.0 mi NNE 6.9 mph - N/A   Clear